La Porte, IN

4:27 AM CDT on April 24, 2018 (GMT -0500)
La Porte Municipal

Weather History for KPPO - December, 2013

Change the Weather History Date:

Thursday, December 26, 2013

  Actual Average (KSBN) Record (KSBN)
Temperature  
Mean Temperature 24 °F -  
Max Temperature 32 °F 29 °F 55 °F (1959)
Min Temperature 15 °F 17 °F -10 °F (1983)
Degree Days  
Heating Degree Days 42    
Moisture  
Dew Point 19 °F    
Average Humidity 77    
Maximum Humidity 87    
Minimum Humidity 67    
Precipitation  
Precipitation 0.00 in - - ()
Sea Level Pressure  
Sea Level Pressure 30.21 in    
Wind  
Wind Speed 11 mph (SW)    
Max Wind Speed 18 mph    
Max Gust Speed 23 mph    
Visibility 10 miles    
Events Snow    
Averages and records for this station are not official NWS values.
T = Trace of Precipitation, MM = Missing Value Source: NWS Daily Summary

Daily Weather History Graph

Daily Weather History Graph

Search for Another Location

Airport or City:

Astronomy

Dec. 26, 2013 Rise Set
Actual Time 7:12 AM CST 4:23 PM CST
Civil Twilight 6:40 AM CST 4:54 PM CST
Nautical Twilight 6:05 AM CST 5:29 PM CST
Astronomical Twilight 5:32 AM CST 6:03 PM CST
Moon 12:37 AM CST (12/26) 12:01 PM CST (12/26)
Length of Visible Light 10h 13m
Length of Day
9h 10m
Last Quarter, 38% of the Moon is Illuminated
Dec 26
Last Quarter
Jan 1
New
Jan 7
First Quarter
Jan 15
Full
Jan 23
Last Quarter

Hourly Weather History & Observations

Time (CST) Temp. Windchill Dew Point Humidity Pressure Visibility Wind Dir Wind Speed Gust Speed Precip Events Conditions
12:15 AM 26.6 °F 14.7 °F 23.2 °F 87% 30.08 in 10.0 mi West 15.0 mph 21.9 mph N/A   Overcast
12:35 AM 25.9 °F 13.3 °F 21.9 °F 85% 30.08 in 10.0 mi West 16.1 mph 21.9 mph N/A   Overcast
12:55 AM 25.7 °F 14.6 °F 21.9 °F 86% 30.08 in 7.0 mi West 12.7 mph 19.6 mph N/A   Overcast
1:15 AM 25.5 °F 15.5 °F 22.1 °F 87% 30.09 in 7.0 mi West 10.4 mph - N/A Snow Light Snow
1:35 AM 25.5 °F 14.3 °F 22.1 °F 87% 30.10 in 7.0 mi West 12.7 mph 17.3 mph N/A   Overcast
1:55 AM 25.3 °F 14.1 °F 21.2 °F 84% 30.10 in 7.0 mi West 12.7 mph 21.9 mph N/A   Overcast
2:15 AM 25.2 °F 12.9 °F 20.1 °F 81% 30.11 in 10.0 mi West 15.0 mph 20.7 mph N/A   Overcast
2:35 AM 24.6 °F 13.8 °F 19.4 °F 81% 30.11 in 10.0 mi West 11.5 mph - N/A   Mostly Cloudy
2:55 AM 24.1 °F 11.0 °F 18.9 °F 80% 30.12 in 10.0 mi West 16.1 mph 23.0 mph N/A   Mostly Cloudy
3:15 AM 23.9 °F 12.9 °F 19.0 °F 82% 30.12 in 10.0 mi West 11.5 mph 18.4 mph N/A   Overcast
3:35 AM 23.5 °F 9.4 °F 17.8 °F 79% 30.13 in 10.0 mi West 18.4 mph 23.0 mph N/A   Overcast
3:55 AM 22.5 °F 8.9 °F 16.7 °F 79% 30.14 in 10.0 mi West 16.1 mph 21.9 mph N/A   Overcast
4:15 AM 21.2 °F 7.8 °F 14.9 °F 77% 30.14 in 10.0 mi West 15.0 mph 18.4 mph N/A   Overcast
4:35 AM 20.3 °F 9.0 °F 14.5 °F 78% 30.15 in 10.0 mi West 10.4 mph 20.7 mph N/A   Overcast
4:55 AM 19.6 °F 6.8 °F 14.0 °F 79% 30.16 in 10.0 mi West 12.7 mph - N/A   Overcast
5:15 AM 18.5 °F 4.9 °F 12.9 °F 79% 30.17 in 10.0 mi West 13.8 mph - N/A   Overcast
5:35 AM 18.1 °F 7.1 °F 12.9 °F 80% 30.17 in 10.0 mi West 9.2 mph - N/A   Overcast
5:55 AM 17.2 °F 7.8 °F 12.6 °F 82% 30.18 in 10.0 mi WSW 6.9 mph - N/A   Overcast
6:15 AM 17.2 °F 8.9 °F 12.7 °F 83% 30.19 in 10.0 mi SW 5.8 mph - N/A   Overcast
6:35 AM 16.7 °F 6.2 °F 12.7 °F 84% 30.19 in 10.0 mi WSW 8.1 mph - N/A   Overcast
6:55 AM 16.7 °F 7.2 °F 12.9 °F 85% 30.20 in 10.0 mi West 6.9 mph - N/A   Overcast
7:15 AM 17.1 °F 5.8 °F 12.9 °F 84% 30.21 in 10.0 mi West 9.2 mph - N/A   Overcast
7:35 AM 16.2 °F 6.5 °F 11.8 °F 83% 30.23 in 10.0 mi WSW 6.9 mph - N/A   Mostly Cloudy
7:55 AM 15.4 °F 4.6 °F 10.9 °F 82% 30.22 in 10.0 mi WSW 8.1 mph - N/A   Scattered Clouds
8:15 AM 15.4 °F 5.6 °F 10.4 °F 80% 30.24 in 10.0 mi WSW 6.9 mph - N/A   Clear
8:35 AM 15.8 °F 5.1 °F 9.5 °F 76% 30.25 in 10.0 mi WSW 8.1 mph - N/A   Scattered Clouds
8:55 AM 16.3 °F 6.7 °F 9.5 °F 74% 30.26 in 10.0 mi West 6.9 mph - N/A   Scattered Clouds
9:15 AM 17.1 °F 7.6 °F 10.0 °F 74% 30.27 in 10.0 mi WSW 6.9 mph - N/A   Clear
9:35 AM 17.6 °F 8.2 °F 10.2 °F 73% 30.28 in 10.0 mi WSW 6.9 mph - N/A   Clear
9:55 AM 18.3 °F 8.2 °F 10.4 °F 71% 30.29 in 10.0 mi WSW 8.1 mph - N/A   Clear
10:15 AM 18.7 °F 7.0 °F 10.9 °F 72% 30.29 in 10.0 mi SW 10.4 mph - N/A   Clear
10:35 AM 19.8 °F 9.1 °F 11.3 °F 70% 30.30 in 10.0 mi WSW 9.2 mph - N/A   Mostly Cloudy
10:55 AM 20.8 °F 10.4 °F 12.2 °F 69% 30.29 in 10.0 mi SW 9.2 mph - N/A   Overcast
11:15 AM 21.4 °F 9.7 °F 12.2 °F 68% 30.29 in 10.0 mi WSW 11.5 mph - N/A   Overcast
11:35 AM 22.1 °F 11.3 °F 12.7 °F 67% 30.29 in 10.0 mi WSW 10.4 mph - N/A   Overcast
11:55 AM 22.6 °F 11.3 °F 14.0 °F 69% 30.28 in 10.0 mi SW 11.5 mph - N/A   Overcast
12:15 PM 23.0 °F 13.1 °F 14.9 °F 71% 30.28 in 10.0 mi WSW 9.2 mph - N/A   Overcast
12:35 PM 23.2 °F 13.3 °F 15.4 °F 72% 30.28 in 10.0 mi SW 9.2 mph - N/A Snow Light Snow
12:55 PM 23.7 °F 14.0 °F 16.3 °F 73% 30.27 in 10.0 mi SW 9.2 mph - N/A Snow Light Snow
1:15 PM 23.9 °F 15.8 °F 17.2 °F 76% 30.27 in 7.0 mi SW 6.9 mph - N/A Snow Light Snow
1:35 PM 24.4 °F 18.6 °F 17.8 °F 76% 30.25 in 10.0 mi South 4.6 mph - N/A Snow Light Snow
1:55 PM 25.2 °F 15.7 °F 18.5 °F 76% 30.25 in 10.0 mi SSW 9.2 mph - N/A   Mostly Cloudy
2:15 PM 25.7 °F 17.1 °F 19.0 °F 76% 30.24 in 10.0 mi SSW 8.1 mph - N/A   Mostly Cloudy
2:35 PM 26.6 °F 19.1 °F 19.4 °F 74% 30.24 in 10.0 mi South 6.9 mph - N/A   Overcast
2:55 PM 27.1 °F 18.2 °F 19.4 °F 73% 30.24 in 10.0 mi South 9.2 mph - N/A   Mostly Cloudy
3:15 PM 26.4 °F 20.9 °F 19.2 °F 74% 30.24 in 10.0 mi South 4.6 mph - N/A   Mostly Cloudy
3:35 PM 26.6 °F 21.2 °F 19.8 °F 75% 30.23 in 10.0 mi SSE 4.6 mph - N/A   Overcast
3:55 PM 27.0 °F 21.6 °F 20.5 °F 77% 30.23 in 10.0 mi South 4.6 mph - N/A   Overcast
4:15 PM 27.5 °F 20.2 °F 21.7 °F 79% 30.22 in 10.0 mi South 6.9 mph - N/A   Mostly Cloudy
4:35 PM 28.9 °F 21.9 °F 23.0 °F 78% 30.23 in 10.0 mi South 6.9 mph - N/A   Mostly Cloudy
4:55 PM 28.9 °F 21.9 °F 23.4 °F 80% 30.23 in 10.0 mi South 6.9 mph - N/A   Mostly Cloudy
5:15 PM 29.1 °F 22.1 °F 23.7 °F 80% 30.22 in 10.0 mi South 6.9 mph - N/A   Overcast
5:35 PM 29.7 °F 21.3 °F 23.9 °F 79% 30.22 in 10.0 mi South 9.2 mph - N/A   Overcast
5:55 PM 30.0 °F 21.7 °F 23.7 °F 77% 30.21 in 10.0 mi South 9.2 mph - N/A   Mostly Cloudy
6:15 PM 30.2 °F 22.6 °F 23.7 °F 77% 30.21 in 10.0 mi South 8.1 mph 16.1 mph N/A   Mostly Cloudy
6:35 PM 30.6 °F 24.7 °F 23.9 °F 76% 30.21 in 10.0 mi South 5.8 mph - N/A   Overcast
6:55 PM 30.6 °F 22.4 °F 23.9 °F 76% 30.21 in 10.0 mi SSW 9.2 mph - N/A   Overcast
7:15 PM 30.9 °F 25.2 °F 23.9 °F 75% 30.21 in 10.0 mi SSW 5.8 mph - N/A   Overcast
7:35 PM 31.1 °F 23.1 °F 23.9 °F 75% 30.21 in 10.0 mi SSW 9.2 mph - N/A   Overcast
7:55 PM 31.1 °F 24.5 °F 23.9 °F 75% 30.21 in 10.0 mi SSW 6.9 mph - N/A   Overcast
8:15 PM 31.1 °F 23.7 °F 23.9 °F 75% 30.22 in 10.0 mi SSW 8.1 mph - N/A   Overcast
8:35 PM 31.5 °F 24.2 °F 24.3 °F 75% 30.22 in 10.0 mi SSW 8.1 mph - N/A   Overcast
8:55 PM 31.5 °F 24.2 °F 24.4 °F 75% 30.22 in 10.0 mi SSW 8.1 mph - N/A   Overcast
9:15 PM 31.5 °F 22.9 °F 24.6 °F 76% 30.22 in 10.0 mi SSW 10.4 mph - N/A   Overcast
9:35 PM 31.8 °F 23.3 °F 24.8 °F 75% 30.22 in 10.0 mi SSW 10.4 mph - N/A   Overcast
9:55 PM 32.0 °F 23.6 °F 25.0 °F 75% 30.22 in 10.0 mi SSW 10.4 mph 17.3 mph N/A   Overcast
10:15 PM 32.0 °F 22.5 °F 25.3 °F 76% 30.22 in 10.0 mi SW 12.7 mph - N/A   Overcast
10:35 PM 32.0 °F 23.0 °F 25.5 °F 77% 30.22 in 10.0 mi SW 11.5 mph - N/A   Overcast
10:55 PM 32.0 °F 23.6 °F 25.7 °F 78% 30.22 in 10.0 mi SW 10.4 mph 16.1 mph N/A   Overcast
11:15 PM 32.4 °F 24.6 °F 25.7 °F 76% 30.21 in 10.0 mi SW 9.2 mph - N/A   Overcast
11:35 PM 32.4 °F 24.6 °F 26.1 °F 78% 30.21 in 10.0 mi SW 9.2 mph - N/A   Overcast
11:55 PM 32.2 °F 25.0 °F 26.2 °F 79% 30.21 in 10.0 mi SW 8.1 mph - N/A   Overcast